Flag for Canada Weather past 2 weeks in Burlington, Ontario, Canada

Now
51 °F

Cool.


Feels Like: 49 °F
Forecast: 47 / 63 °F
Wind: 5 mph from Southwest

Location: Burlington Piers

Current Time: Apr 18, 2015 at 5:04:42 AM

Latest Report: Apr 18, 2015 at 4:00 AM


Visibility: N/A

Pressure: 29.96 "Hg

Humidity: 80%

Dew point: 45 °F

Location of BurlingtonLocation

Historic Weather in Burlington — Graph

°F

Burlington temperature yesterday

Maximum temperature yesterday: 70 °F (at 6:00 PM)
Minimum temperature yesterday: 49 °F (at 7:00 AM)
Average temperature yesterday: 58 °F

Past Weeks' High & Low Weather Summary

 TemperatureHumidityPressure
High75 °F (Apr 13, 4:00 PM)100% (Apr 8, 2:00 PM)30.41 "Hg (Apr 8, 2:00 PM)
Low31 °F (Apr 4, 7:00 AM)21% (Apr 14, 5:00 PM)29.44 "Hg (Apr 10, 10:00 AM)
Average43 °F70%30.09 "Hg
* Reported Apr 3 4:00 AM — Apr 18 4:00 AM, Burlington, Weather by CustomWeather, © 2015

Note: Actual official high and low records may vary slightly from our data, if they occured in-between our weather recording intervals... More about our weather records

Advertising

Burlington weather history for previous 24 hours

 ConditionsComfort  
Time TempWeatherWind HumidityBarometerVisibility
4:00 AM
Sat, Apr 18
51 °FCool.5 mph80%29.96 "HgN/A
3:00 AM51 °FCool.2 mph78%29.96 "HgN/A
2:00 AM54 °FCool.3 mph69%29.97 "HgN/A
1:00 AM57 °FRefreshingly cool.5 mph60%29.98 "HgN/A
12:00 AM57 °FRefreshingly cool.5 mph53%29.99 "HgN/A
11:00 PM
Fri, Apr 17
60 °FRefreshingly cool.6 mph43%29.99 "HgN/A
10:00 PM62 °FRefreshingly cool.5 mph43%30.00 "HgN/A
9:00 PM65 °FMild.7 mph35%29.98 "HgN/A
8:00 PM67 °FMild.9 mph30%29.96 "HgN/A
7:00 PM68 °FMild.9 mph29%29.94 "HgN/A
6:00 PM70 °FMild.8 mph30%29.93 "HgN/A
5:00 PM69 °FMild.9 mph32%29.94 "HgN/A
4:00 PM69 °FMild.9 mph32%29.95 "HgN/A
3:00 PM68 °FMild.6 mph29%29.96 "HgN/A
2:00 PM65 °FMild.6 mph39%29.98 "HgN/A
1:00 PM62 °FRefreshingly cool.6 mph57%30.01 "HgN/A
12:00 PM60 °FCool.7 mph65%30.02 "HgN/A
11:00 AM58 °FCool.6 mph69%30.01 "HgN/A
10:00 AM55 °FCool.6 mph79%30.01 "HgN/A
9:00 AM53 °FCool.6 mph86%30.02 "HgN/A
8:00 AM52 °FCool.5 mph91%30.02 "HgN/A
7:00 AM49 °FCool.3 mph98%30.01 "HgN/A
6:00 AM50 °FCool.5 mph94%30.00 "HgN/A
5:00 AM49 °FCool.3 mph94%29.99 "HgN/A
Weather by CustomWeather, © 2015

See weather overviewHow to use our weather pages